Location: Krasnoyarskiy Pitomnik
(51.1333°N, 71.6167°E)
Time: 22:44:43
(UTC+00:00)

A-11 Canister half - Pass Details

Date: 22 April 2024
Orbit: 1525 x 1683 km, 47.3° (Epoch: 19 May)

Event Time Altitude Azimuth Distance (km) Brightness Sun altitude
Rises 08:11:23 0° 287° (WNW) 4,941 11.7 49.4°
Reaches altitude 10° 08:15:47 10° 272° (W) 3,943 11.5 49.2°
Maximum altitude 08:22:06 19° 232° (SW) 3,254 11.7 48.7°
Drops below altitude 10° 08:28:22 10° 192° (SSW) 3,882 12.0 48.3°
Sets 08:32:42 0° 176° (S) 4,838 12.1 48.0°
